EW9889 Weather Reports


time (UTC)temp
C
wind
direction
speed
KPH
gust
KPH
rain 1hr
cm
rain 24hr
cm
rain mn
cm
humidity
%
barometer
mb
20260502211516 27 76 6.4 14.5 0.00 0.08 0.00 80 1014.3
20260502211014 27 64 6.4 17.7 0.00 0.08 0.00 80 1014.3
20260502210514 27 82 8.0 17.7 0.00 0.08 0.00 79 1014.2
20260502210015 28 63 8.0 16.1 0.00 0.08 0.00 78 1014.2
20260502205515 28 41 4.8 12.9 0.00 0.08 0.00 78 1014.2
20260502205014 28 64 3.2 14.5 0.00 0.08 0.00 78 1014.2
20260502204514 27 12 3.2 14.5 0.00 0.08 0.00 80 1014.3
20260502204013 27 40 4.8 17.7 0.00 0.08 0.00 80 1014.2
20260502203516 27 60 3.2 19.3 0.00 0.08 0.00 80 1014.2
20260502203010 27 68 9.7 19.3 0.00 0.08 0.00 79 1014.2
20260502202510 28 56 3.2 17.7 0.00 0.08 0.00 79 1014.0
20260502202007 28 66 8.0 17.7 0.00 0.08 0.00 78 1014.1
20260502201507 28 60 4.8 16.1 0.00 0.08 0.00 78 1014.2
20260502201008 28 49 4.8 16.1 0.00 0.08 0.00 77 1014.3
20260502200509 28 53 3.2 8.0 0.00 0.08 0.00 75 1014.2
20260502200004 28 329 1.6 8.0 0.00 0.08 0.00 74 1014.2
20260502195505 28 32 1.6 16.1 0.00 0.08 0.00 74 1014.2
20260502195002 29 325 4.8 16.1 0.00 0.08 0.00 73 1014.2
20260502194502 29 55 4.8 9.7 0.00 0.08 0.00 72 1014.2
20260502194100 30 330 1.6 8.0 0.00 0.08 0.00 71 1014.3
20260502193559 30 5 1.6 8.0 0.00 0.08 0.00 69 1014.3
20260502193059 30 349 1.6 8.0 0.00 0.08 0.00 67 1014.4
20260502192600 31 18 3.2 8.0 0.00 0.08 0.00 66 1014.4
20260502192057 31 228 1.6 9.7 0.00 0.08 0.00 66 1014.5
20260502191606 31 304 1.6 12.9 0.00 0.08 0.00 65 1014.6
20260502191057 31 243 3.2 12.9 0.00 0.08 0.00 64 1014.5
20260502190556 32 344 1.6 8.0 0.00 0.08 0.00 64 1014.6
20260502190056 32 288 1.6 8.0 0.00 0.08 0.00 64 1014.7
20260502185554 32 292 1.6 6.4 0.00 0.08 0.00 62 1014.8
20260502185054 32 286 1.6 9.7 0.00 0.08 0.00 61 1014.7
20260502184600 32 302 3.2 9.7 0.00 0.08 0.00 59 1014.9
20260502184054 33 311 1.6 6.4 0.00 0.08 0.00 60 1014.9
20260502183553 33 286 1.6 6.4 0.00 0.08 0.00 62 1014.9
20260502183054 33 328 3.2 8.0 0.00 0.08 0.00 62 1014.9
20260502182553 33 300 3.2 8.0 0.00 0.08 0.00 62 1014.8
20260502182051 33 313 3.2 6.4 0.00 0.08 0.00 61 1015.0
20260502181554 32 299 1.6 9.7 0.00 0.08 0.00 62 1014.9
20260502181050 32 288 1.6 9.7 0.00 0.08 0.00 61 1015.0
20260502180551 32 269 3.2 9.7 0.00 0.08 0.00 60 1015.0
20260502164038 32 286 1.6 8.0 0.00 0.08 0.00 59 1016.0
20260502163538 32 256 1.6 8.0 0.00 0.08 0.00 56 1016.0
20260502163047 32 283 1.6 11.3 0.00 0.08 0.00 53 1016.0
20260502162538 32 290 1.6 11.3 0.00 0.08 0.00 57 1016.0
20260502162037 32 291 1.6 6.4 0.00 0.08 0.00 57 1016.1
20260502161534 32 307 1.6 6.4 0.00 0.08 0.00 59 1016.2
20260502161033 32 234 0.0 6.4 0.00 0.08 0.00 60 1016.3
20260502160533 32 290 0.0 4.8 0.00 0.08 0.00 62 1016.3
20260502152028 31 270 1.6 6.4 0.00 0.08 0.00 62 1016.9
20260502151544 31 267 3.2 9.7 0.00 0.08 0.00 63 1017.1
20260502151027 31 197 3.2 9.7 0.00 0.08 0.00 60 1017.0
20260502150527 31 230 1.6 8.0 0.00 0.08 0.00 60 1017.2
20260502130523 28 242 0.0 6.4 0.00 0.08 0.00 71 1016.7
20260502123517 28 230 0.0 4.8 0.00 0.08 0.00 73 1016.5
20260502123027 28 240 1.6 4.8 0.00 0.08 0.00 73 1016.4
20260502122516 28 238 1.6 4.8 0.00 0.08 0.00 72 1016.3
20260502122013 28 226 0.0 4.8 0.00 0.08 0.00 74 1016.2
20260502121512 28 223 0.0 3.2 0.00 0.08 0.00 75 1016.1
20260502121011 27 223 0.0 3.2 0.00 0.08 0.00 73 1016.0
20260502120510 27 217 0.0 4.8 0.00 0.08 0.00 74 1016.0
20260502115507 27 115 1.6 4.8 0.00 0.08 0.00 74 1015.9
20260502115006 26 85 1.6 4.8 0.00 0.08 0.00 76 1015.9
20260502114504 26 69 3.2 4.8 0.00 0.08 0.00 77 1015.9
20260502114003 26 78 0.0 3.2 0.00 0.08 0.00 81 1015.8
20260502113504 26 61 1.6 3.2 0.00 0.08 0.00 82 1015.6
20260502113105 25 69 1.6 4.8 0.00 0.08 0.00 82 1015.6
20260502112559 25 81 1.6 4.8 0.00 0.08 0.00 82 1015.6
20260502112057 25 78 1.6 4.8 0.00 0.08 0.00 83 1015.6
20260502111602 25 72 0.0 3.2 0.00 0.08 0.00 85 1015.5
20260502111056 24 72 0.0 4.8 0.00 0.08 0.00 87 1015.6
20260502110555 23 72 1.6 4.8 0.00 0.08 0.00 87 1015.4
20260502110055 23 72 1.6 6.4 0.00 0.08 0.00 88 1015.2
20260502105555 23 53 3.2 6.4 0.00 0.08 0.00 88 1015.2
20260502105055 23 67 1.6 4.8 0.00 0.08 0.00 90 1015.2
20260502104554 22 86 1.6 6.4 0.00 0.08 0.00 90 1015.1
20260502104053 22 65 3.2 6.4 0.00 0.08 0.00 91 1015.1
20260502103553 22 65 3.2 4.8 0.00 0.08 0.00 91 1015.0
20260502103104 22 57 3.2 4.8 0.00 0.08 0.00 92 1015.0
20260502102552 22 70 3.2 4.8 0.00 0.08 0.00 92 1014.9
20260502102052 22 69 3.2 4.8 0.00 0.08 0.00 92 1014.9
20260502101603 22 80 3.2 4.8 0.00 0.08 0.00 93 1014.8
20260502101051 22 68 1.6 4.8 0.00 0.08 0.00 93 1014.8
20260502100551 22 68 1.6 4.8 0.00 0.08 0.00 93 1014.8
20260502100118 22 67 1.6 4.8 0.00 0.08 0.00 93 1014.8
20260502091047 22 83 3.2 6.4 0.00 0.08 0.00 93 1014.4
20260502090547 22 74 3.2 6.4 0.00 0.08 0.00 93 1014.2